{"data":{"norad_id":40339,"epoch":"2026-09-20T04:23:02.325984Z","epoch_age_seconds":68641,"freshness":"FRESH","line1":"1 40339U 14080B   26263.18266581  .00000052  00000+0  15696-3 0  9994","line2":"2 40339  63.3867  66.1232 0375295   9.4361 351.3464 13.45440546578415","mean_motion":13.45440546,"eccentricity":0.0375295,"inclination_deg":63.3867,"raan_deg":66.1232,"arg_perigee_deg":9.4361,"mean_anomaly_deg":351.3464,"bstar":0.00015696,"rev_number":57841,"period_min":107.02814065483,"perigee_km":808.8400968761,"apogee_km":1369.3220170123,"semimajor_km":7467.2180569442,"source":"CELESTRAK","updated_at":"2026-09-20T09:00:14.056934Z"}}